Location: Maiden
(35.5760°N, 81.2120°W)
Time: 03:24:02
(UTC-04:00)

ISS - Pass Details

Date: 02 August 2020
Orbit: 418 x 420 km, 51.6° (Epoch: 12 August)

Event Time Altitude Azimuth Distance (km) Brightness Sun altitude
Rises 21:23:45 0° 318° (NW) 2,368 1.7 -11.1°
Reaches altitude 10° 21:25:57 10° 327° (NNW) 1,501 0.2 -11.5°
Maximum altitude 21:29:06 37° 36° (NE) 669 -2.8 -12.0°
Enters shadow 21:31:06 19° 96° (E) 1,078 -2.2 -12.4°
